Regional Weather Roundup
Issued by NWS Green Bay, WI

Home | Current Version | Previous Version | Text Only | Print | Product List | Glossary On
Versions: 1 2 3 4 5 6 7 8 9 10 11 12 13 14 15 16 17 18 19 20 21 22 23 24 25 26 27 28 29 30 31 32 33 34 35 36 37 38 39 40 41 42 43 44 45 46 47 48 49 50
000
ASUS43 KGRB 051359
RWRGRB

NORTH-CENTRAL AND NORTHEAST WISCONSIN REGIONAL WEATHER ROUNDUP
NATIONAL WEATHER SERVICE GREEN BAY WI
800 AM CST THU MAR 05 2015

WIZ005-009-010>012-018-019-051500-
NORTH CENTRAL WISCONSIN

CITY           SKY/WX    TMP DP  RH WIND       PRES   REMARKS
IRONWOOD       SUNNY     -8 N/A N/A SW7       30.33R WCI -22
MANITOWISH WTR NOT AVBL
ARBOR VITAE    NOT AVBL
EAGLE RIVER    NOT AVBL
LAND O LAKES   NOT AVBL
RHINELANDER    MOSUNNY  -14 -20  74 W5        30.32R WCI -26
PHILLIPS       NOT AVBL
ANTIGO         NOT AVBL
TOMAHAWK       NOT AVBL
MERRILL        NOT AVBL
$$

WIZ013-073-051500-
NORTHEAST WISCONSIN

CITY           SKY/WX    TMP DP  RH WIND       PRES   REMARKS
IRON MOUNTAIN  SUNNY    -10 -15  78 CALM      30.34R
MARINETTE      SUNNY     -2 -11  65 NW5       30.41R WCI -12
$$

WIZ017-030-035>037-045-051500-
CENTRAL WISCONSIN

CITY           SKY/WX    TMP DP  RH WIND       PRES   REMARKS
MEDFORD        NOT AVBL
WAUSAU         MOSUNNY   -7 -16  65 NW6       30.38R WCI -20
MOSINEE        SUNNY     -8 -17  65 NW3       30.39R
MARSHFIELD     MOSUNNY   -7 -15  68 NW6       30.40R WCI -20
WISC RAPIDS    MOSUNNY   -7 -14  71 CALM      30.45R
STEVENS POINT  NOT AVBL
WAUPACA        NOT AVBL
SHAWANO        NOT AVBL
CLINTONVILLE   NOT AVBL
$$

WIZ038-039-048-051-051500-
FOX VALLEY

CITY           SKY/WX    TMP DP  RH WIND       PRES   REMARKS
NWS GREEN BAY  SUNNY     -3 -11  68 SW3       30.44R
APPLETON       SUNNY     -6 -15  65 W9        30.42R WCI -22
OSHKOSH        SUNNY      0 -11  59 W9        30.44R WCI -15
FOND DU LAC    SUNNY      1 -11  57 W6        30.45R WCI -10
$$

WIZ022-050-052-051500-
EAST CENTRAL WISCONSIN

CITY           SKY/WX    TMP DP  RH WIND       PRES   REMARKS
STURGEON BAY   SUNNY     -6 -13  71 W3        30.43R
MANITOWOC      NOT AVBL
SHEBOYGAN      SUNNY      1 -11  57 NW8       30.45R WCI -13
$$

LMZ563-521-522-541>543-051500-
LAKESHORE

STATION/POSITION TIME  TEMP    WIND        PRES    VSBY  WAVE
                       AIR SEA DIR/SP/G                  HT/PER
                 (UTC) (F)     (DEG/KT/KT) (MB)    (MI)  (FT/S)
SHEBOYGAN LKSHOR 1300    2     300/  8/ 10 1031.9R
KEWAUNEE LKSHORE 1300   -3     300/  5/  8 1028.9R
NORTHPORT PIER   1300   -1     290/  6/ 12 1029.5R
SISTER BAY LKSHO 1300    2     280/  7/  8   N/A
CHAMBERS ISLAND  1300   -3     250/  6/  8 1029.5R
MENOMINEE LKSHOR 1300   -4     270/  5     1030.4R
$$



USA.gov is the U.S. government's official web portal to all federal, state and local government web resources and services.